Year,Month,Day,Hour,Minute,Value (Times are PST for temperature in C)
2015,07,19,00,00,24.60
2015,07,19,00,01,24.60
2015,07,19,00,02,24.60
2015,07,19,00,03,24.60
2015,07,19,00,04,24.60
2015,07,19,00,05,24.60
2015,07,19,00,06,24.60
2015,07,19,00,07,24.60
2015,07,19,00,08,24.60
2015,07,19,00,09,24.60
2015,07,19,00,10,24.60
2015,07,19,00,11,24.60
2015,07,19,00,12,24.60
2015,07,19,00,13,24.50
2015,07,19,00,14,24.50
2015,07,19,00,15,24.50
2015,07,19,00,16,24.50
2015,07,19,00,17,24.40
2015,07,19,00,18,24.40
2015,07,19,00,19,24.40
2015,07,19,00,20,24.40
2015,07,19,00,21,24.40
2015,07,19,00,22,24.40
2015,07,19,00,23,24.40
2015,07,19,00,24,24.40
2015,07,19,00,25,24.50
2015,07,19,00,26,24.40
2015,07,19,00,27,24.40
2015,07,19,00,28,24.40
2015,07,19,00,29,24.40
2015,07,19,00,30,24.40
2015,07,19,00,31,24.40
2015,07,19,00,32,24.40
2015,07,19,00,33,24.30
2015,07,19,00,34,24.30
2015,07,19,00,35,24.30
2015,07,19,00,36,24.30
2015,07,19,00,37,24.30
2015,07,19,00,38,24.30
2015,07,19,00,39,24.20
2015,07,19,00,40,24.30
2015,07,19,00,41,24.30
2015,07,19,00,42,24.30
2015,07,19,00,43,24.30
2015,07,19,00,44,24.30
2015,07,19,00,45,24.20
2015,07,19,00,46,24.20
2015,07,19,00,47,24.20
2015,07,19,00,48,24.10
2015,07,19,00,49,24.10
2015,07,19,00,50,24.10
2015,07,19,00,51,24.10
2015,07,19,00,52,24.10
2015,07,19,00,53,24.10
2015,07,19,00,54,24.10
2015,07,19,00,55,24.10
2015,07,19,00,56,24.00
2015,07,19,00,57,24.10
2015,07,19,00,58,24.10
2015,07,19,00,59,24.00
2015,07,19,01,00,24.00
2015,07,19,01,01,24.00
2015,07,19,01,02,24.00
2015,07,19,01,03,24.00
2015,07,19,01,04,24.00
2015,07,19,01,05,24.00
2015,07,19,01,06,24.00
2015,07,19,01,07,24.10
2015,07,19,01,08,24.00
2015,07,19,01,09,24.00
2015,07,19,01,10,23.90
2015,07,19,01,11,23.90
2015,07,19,01,12,23.90
2015,07,19,01,13,23.90
2015,07,19,01,14,23.90
2015,07,19,01,15,23.90
2015,07,19,01,16,23.90
2015,07,19,01,17,23.90
2015,07,19,01,18,23.80
2015,07,19,01,19,23.80
2015,07,19,01,20,23.80
2015,07,19,01,21,23.80
2015,07,19,01,22,23.80
2015,07,19,01,23,23.80
2015,07,19,01,24,23.80
2015,07,19,01,25,23.70
2015,07,19,01,26,23.70
2015,07,19,01,27,23.70
2015,07,19,01,28,23.70
2015,07,19,01,29,23.70
2015,07,19,01,30,23.70
2015,07,19,01,31,23.70
2015,07,19,01,32,23.70
2015,07,19,01,33,23.70
2015,07,19,01,34,23.70
2015,07,19,01,35,23.70
2015,07,19,01,36,23.70
2015,07,19,01,37,23.70
2015,07,19,01,38,23.70
2015,07,19,01,39,23.70
2015,07,19,01,40,23.70
2015,07,19,01,41,23.70
2015,07,19,01,42,23.70
2015,07,19,01,43,23.70
2015,07,19,01,44,23.70
2015,07,19,01,45,23.70
2015,07,19,01,46,23.60
2015,07,19,01,47,23.60
2015,07,19,01,48,23.60
2015,07,19,01,49,23.60
2015,07,19,01,50,23.60
2015,07,19,01,51,23.60
2015,07,19,01,52,23.60
2015,07,19,01,53,23.60
2015,07,19,01,54,23.60
2015,07,19,01,55,23.60
2015,07,19,01,56,23.60
2015,07,19,01,57,23.60
2015,07,19,01,58,23.60
2015,07,19,01,59,23.60
2015,07,19,02,00,23.60
2015,07,19,02,01,23.70
2015,07,19,02,02,23.70
2015,07,19,02,03,23.60
2015,07,19,02,04,23.60
2015,07,19,02,05,23.60
2015,07,19,02,06,23.60
2015,07,19,02,07,23.60
2015,07,19,02,08,23.60
2015,07,19,02,09,23.60
2015,07,19,02,10,23.60
2015,07,19,02,11,23.60
2015,07,19,02,12,23.60
2015,07,19,02,13,23.60
2015,07,19,02,14,23.60
2015,07,19,02,15,23.60
2015,07,19,02,16,23.60
2015,07,19,02,17,23.50
2015,07,19,02,18,23.50
2015,07,19,02,19,23.50
2015,07,19,02,20,23.40
2015,07,19,02,21,23.40
2015,07,19,02,22,23.40
2015,07,19,02,23,23.50
2015,07,19,02,24,23.50
2015,07,19,02,25,23.50
2015,07,19,02,26,23.60
2015,07,19,02,27,23.50
2015,07,19,02,28,23.50
2015,07,19,02,29,23.50
2015,07,19,02,30,23.40
2015,07,19,02,31,23.50
2015,07,19,02,32,23.50
2015,07,19,02,33,23.50
2015,07,19,02,34,23.50
2015,07,19,02,35,23.50
2015,07,19,02,36,23.50
2015,07,19,02,37,23.50
2015,07,19,02,38,23.50
2015,07,19,02,39,23.50
2015,07,19,02,40,23.40
2015,07,19,02,41,23.40
2015,07,19,02,42,23.40
2015,07,19,02,43,23.40
2015,07,19,02,44,23.30
2015,07,19,02,45,23.30
2015,07,19,02,46,23.30
2015,07,19,02,47,23.40
2015,07,19,02,48,23.40
2015,07,19,02,49,23.40
2015,07,19,02,50,23.40
2015,07,19,02,51,23.40
2015,07,19,02,52,23.40
2015,07,19,02,53,23.40
2015,07,19,02,54,23.40
2015,07,19,02,55,23.40
2015,07,19,02,56,23.40
2015,07,19,02,57,23.40
2015,07,19,02,58,23.40
2015,07,19,02,59,23.40
2015,07,19,03,00,23.40
2015,07,19,03,01,23.40
2015,07,19,03,02,23.50
2015,07,19,03,03,23.50
2015,07,19,03,04,23.50
2015,07,19,03,05,23.40
2015,07,19,03,06,23.40
2015,07,19,03,07,23.40
2015,07,19,03,08,23.40
2015,07,19,03,09,23.50
2015,07,19,03,10,23.50
2015,07,19,03,11,23.50
2015,07,19,03,12,23.50
2015,07,19,03,13,23.50
2015,07,19,03,14,23.50
2015,07,19,03,15,23.50
2015,07,19,03,16,23.50
2015,07,19,03,17,23.50
2015,07,19,03,18,23.40
2015,07,19,03,19,23.40
2015,07,19,03,20,23.40
2015,07,19,03,21,23.40
2015,07,19,03,22,23.40
2015,07,19,03,23,23.40
2015,07,19,03,24,23.40
2015,07,19,03,25,23.30
2015,07,19,03,26,23.30
2015,07,19,03,27,23.30
2015,07,19,03,28,23.30
2015,07,19,03,29,23.30
2015,07,19,03,30,23.30
2015,07,19,03,31,23.30
2015,07,19,03,32,23.30
2015,07,19,03,33,23.30
2015,07,19,03,34,23.30
2015,07,19,03,35,23.30
2015,07,19,03,36,23.30
2015,07,19,03,37,23.30
2015,07,19,03,38,23.40
2015,07,19,03,39,23.40
2015,07,19,03,40,23.40
2015,07,19,03,41,23.40
2015,07,19,03,42,23.30
2015,07,19,03,43,23.30
2015,07,19,03,44,23.30
2015,07,19,03,45,23.30
2015,07,19,03,46,23.30
2015,07,19,03,47,23.30
2015,07,19,03,48,23.30
2015,07,19,03,49,23.30
2015,07,19,03,50,23.30
2015,07,19,03,51,23.30
2015,07,19,03,52,23.30
2015,07,19,03,53,23.30
2015,07,19,03,54,23.30
2015,07,19,03,55,23.40
2015,07,19,03,56,23.40
2015,07,19,03,57,23.40
2015,07,19,03,58,23.40
2015,07,19,03,59,23.40
2015,07,19,04,00,23.30
2015,07,19,04,01,23.30
2015,07,19,04,02,23.30
2015,07,19,04,03,23.30
2015,07,19,04,04,23.30
2015,07,19,04,05,23.30
2015,07,19,04,06,23.30
2015,07,19,04,07,23.30
2015,07,19,04,08,23.20
2015,07,19,04,09,23.20
2015,07,19,04,10,23.20
2015,07,19,04,11,23.20
2015,07,19,04,12,23.20
2015,07,19,04,13,23.20
2015,07,19,04,14,23.20
2015,07,19,04,15,23.20
2015,07,19,04,16,23.20
2015,07,19,04,17,23.10
2015,07,19,04,18,23.10
2015,07,19,04,19,23.10
2015,07,19,04,20,23.10
2015,07,19,04,21,23.20
2015,07,19,04,22,23.20
2015,07,19,04,23,23.20
2015,07,19,04,24,23.20
2015,07,19,04,25,23.20
2015,07,19,04,26,23.20
2015,07,19,04,27,23.20
2015,07,19,04,28,23.20
2015,07,19,04,29,23.20
2015,07,19,04,30,23.20
2015,07,19,04,31,23.20
2015,07,19,04,32,23.20
2015,07,19,04,33,23.20
2015,07,19,04,34,23.20
2015,07,19,04,35,23.20
2015,07,19,04,36,23.20
2015,07,19,04,37,23.20
2015,07,19,04,38,23.20
2015,07,19,04,39,23.20
2015,07,19,04,40,23.20
2015,07,19,04,41,23.20
2015,07,19,04,42,23.20
2015,07,19,04,43,23.20
2015,07,19,04,44,23.10
2015,07,19,04,45,23.10
2015,07,19,04,46,23.10
2015,07,19,04,47,23.10
2015,07,19,04,48,23.10
2015,07,19,04,49,23.00
2015,07,19,04,50,23.00
2015,07,19,04,51,22.90
2015,07,19,04,52,22.90
2015,07,19,04,53,22.90
2015,07,19,04,54,22.90
2015,07,19,04,55,22.90
2015,07,19,04,56,22.90
2015,07,19,04,57,22.90
2015,07,19,04,58,22.90
2015,07,19,04,59,22.90
2015,07,19,05,00,22.90
2015,07,19,05,01,22.90
2015,07,19,05,02,22.90
2015,07,19,05,03,22.90
2015,07,19,05,04,22.90
2015,07,19,05,05,22.90
2015,07,19,05,06,22.80
2015,07,19,05,07,22.80
2015,07,19,05,08,22.80
2015,07,19,05,09,22.80
2015,07,19,05,10,22.80
2015,07,19,05,11,22.80
2015,07,19,05,12,22.80
2015,07,19,05,13,22.80
2015,07,19,05,14,22.80
2015,07,19,05,15,22.80
2015,07,19,05,16,22.80
2015,07,19,05,17,22.80
2015,07,19,05,18,22.70
2015,07,19,05,19,22.70
2015,07,19,05,20,22.70
2015,07,19,05,21,22.60
2015,07,19,05,22,22.60
2015,07,19,05,23,22.60
2015,07,19,05,24,22.60
2015,07,19,05,25,22.60
2015,07,19,05,26,22.60
2015,07,19,05,27,22.60
2015,07,19,05,28,22.60
2015,07,19,05,29,22.60
2015,07,19,05,30,22.60
2015,07,19,05,31,22.60
2015,07,19,05,32,22.50
2015,07,19,05,33,22.50
2015,07,19,05,34,22.60
2015,07,19,05,35,22.60
2015,07,19,05,36,22.60
2015,07,19,05,37,22.60
2015,07,19,05,38,22.70
2015,07,19,05,39,22.70
2015,07,19,05,40,22.70
2015,07,19,05,41,22.70
2015,07,19,05,42,22.70
2015,07,19,05,43,22.70
2015,07,19,05,44,22.70
2015,07,19,05,45,22.60
2015,07,19,05,46,22.60
2015,07,19,05,47,22.50
2015,07,19,05,48,22.50
2015,07,19,05,49,22.50
2015,07,19,05,50,22.40
2015,07,19,05,51,22.50
2015,07,19,05,52,22.50
2015,07,19,05,53,22.50
2015,07,19,05,54,22.50
2015,07,19,05,55,22.50
2015,07,19,05,56,22.50
2015,07,19,05,57,22.50
2015,07,19,05,58,22.50
2015,07,19,05,59,22.50
2015,07,19,06,00,22.50
2015,07,19,06,01,22.50
2015,07,19,06,02,22.50
2015,07,19,06,03,22.50
2015,07,19,06,04,22.50
2015,07,19,06,05,22.50
2015,07,19,06,06,22.50
2015,07,19,06,07,22.40
2015,07,19,06,08,22.40
2015,07,19,06,09,22.40
2015,07,19,06,10,22.40
2015,07,19,06,11,22.40
2015,07,19,06,12,22.40
2015,07,19,06,13,22.40
2015,07,19,06,14,22.40
2015,07,19,06,15,22.40
2015,07,19,06,16,22.50
2015,07,19,06,17,22.50
2015,07,19,06,18,22.50
2015,07,19,06,19,22.50
2015,07,19,06,20,22.50
2015,07,19,06,21,22.50
2015,07,19,06,22,22.50
2015,07,19,06,23,22.50
2015,07,19,06,24,22.50
2015,07,19,06,25,22.50
2015,07,19,06,26,22.50
2015,07,19,06,27,22.50
2015,07,19,06,28,22.50
2015,07,19,06,29,22.50
2015,07,19,06,30,22.50
2015,07,19,06,31,22.50
2015,07,19,06,32,22.40
2015,07,19,06,33,22.40
2015,07,19,06,34,22.40
2015,07,19,06,35,22.40
2015,07,19,06,36,22.40
2015,07,19,06,37,22.30
2015,07,19,06,38,22.30
2015,07,19,06,39,22.30
2015,07,19,06,40,22.30
2015,07,19,06,41,22.30
2015,07,19,06,42,22.30
2015,07,19,06,43,22.40
2015,07,19,06,44,22.30
2015,07,19,06,45,22.30
2015,07,19,06,46,22.30
2015,07,19,06,47,22.40
2015,07,19,06,48,22.40
2015,07,19,06,49,22.40
2015,07,19,06,50,22.40
2015,07,19,06,51,22.40
2015,07,19,06,52,22.40
2015,07,19,06,53,22.40
2015,07,19,06,54,22.40
2015,07,19,06,55,22.40
2015,07,19,06,56,22.40
2015,07,19,06,57,22.40
2015,07,19,06,58,22.40
2015,07,19,06,59,22.40
2015,07,19,07,00,22.40
2015,07,19,07,01,22.50
2015,07,19,07,02,22.60
2015,07,19,07,03,22.60
2015,07,19,07,04,22.60
2015,07,19,07,05,22.60
2015,07,19,07,06,22.60
2015,07,19,07,07,22.60
2015,07,19,07,08,22.60
2015,07,19,07,09,22.70
2015,07,19,07,10,22.70
2015,07,19,07,11,22.70
2015,07,19,07,12,22.60
2015,07,19,07,13,22.60
2015,07,19,07,14,22.60
2015,07,19,07,15,22.60
2015,07,19,07,16,22.60
2015,07,19,07,17,22.60
2015,07,19,07,18,22.60
2015,07,19,07,19,22.50
2015,07,19,07,20,22.50
2015,07,19,07,21,22.50
2015,07,19,07,22,22.40
2015,07,19,07,23,22.40
2015,07,19,07,24,22.40
2015,07,19,07,25,22.40
2015,07,19,07,26,22.50
2015,07,19,07,27,22.50
2015,07,19,07,28,22.50
2015,07,19,07,29,22.50
2015,07,19,07,30,22.50
2015,07,19,07,31,22.50
2015,07,19,07,32,22.50
2015,07,19,07,33,22.50
2015,07,19,07,34,22.50
2015,07,19,07,35,22.50
2015,07,19,07,36,22.60
2015,07,19,07,37,22.60
2015,07,19,07,38,22.70
2015,07,19,07,39,22.70
2015,07,19,07,40,22.70
2015,07,19,07,41,22.70
2015,07,19,07,42,22.70
2015,07,19,07,43,22.80
2015,07,19,07,44,22.80
2015,07,19,07,45,22.80
2015,07,19,07,46,22.80
2015,07,19,07,47,22.80
2015,07,19,07,48,22.80
2015,07,19,07,49,22.80
2015,07,19,07,50,22.80
2015,07,19,07,51,22.80
2015,07,19,07,52,22.70
2015,07,19,07,53,22.70
2015,07,19,07,54,22.70
2015,07,19,07,55,22.60
2015,07,19,07,56,22.60
2015,07,19,07,57,22.60
2015,07,19,07,58,22.60
2015,07,19,07,59,22.60
2015,07,19,08,00,22.60
2015,07,19,08,01,22.50
2015,07,19,08,02,22.50
2015,07,19,08,03,22.50
2015,07,19,08,04,22.40
2015,07,19,08,05,22.40
2015,07,19,08,06,22.40
2015,07,19,08,07,22.30
2015,07,19,08,08,22.20
2015,07,19,08,09,22.10
2015,07,19,08,10,22.10
2015,07,19,08,11,22.00
2015,07,19,08,12,21.90
2015,07,19,08,13,21.90
2015,07,19,08,14,21.90
2015,07,19,08,15,21.80
2015,07,19,08,16,21.80
2015,07,19,08,17,21.80
2015,07,19,08,18,21.80
2015,07,19,08,19,21.70
2015,07,19,08,20,21.70
2015,07,19,08,21,21.70
2015,07,19,08,22,21.70
2015,07,19,08,23,21.60
2015,07,19,08,24,21.60
2015,07,19,08,25,21.60
2015,07,19,08,26,21.60
2015,07,19,08,27,21.60
2015,07,19,08,28,21.50
2015,07,19,08,29,21.50
2015,07,19,08,30,21.40
2015,07,19,08,31,21.40
2015,07,19,08,32,21.30
2015,07,19,08,33,21.30
2015,07,19,08,34,21.20
2015,07,19,08,35,21.10
2015,07,19,08,36,21.00
2015,07,19,08,37,20.90
2015,07,19,08,38,20.80
2015,07,19,08,39,20.80
2015,07,19,08,40,20.70
2015,07,19,08,41,20.70
2015,07,19,08,42,20.70
2015,07,19,08,43,20.60
2015,07,19,08,44,20.70
2015,07,19,08,45,20.80
2015,07,19,08,46,21.00
2015,07,19,08,47,21.10
2015,07,19,08,48,21.20
2015,07,19,08,49,21.10
2015,07,19,08,50,21.10
2015,07,19,08,51,21.10
2015,07,19,08,52,21.10
2015,07,19,08,53,21.10
2015,07,19,08,54,21.10
2015,07,19,08,55,21.10
2015,07,19,08,56,21.10
2015,07,19,08,57,21.10
2015,07,19,08,58,21.10
2015,07,19,08,59,21.00
2015,07,19,09,00,21.00
2015,07,19,09,01,21.00
2015,07,19,09,02,20.90
2015,07,19,09,03,20.90
2015,07,19,09,04,20.90
2015,07,19,09,05,20.80
2015,07,19,09,06,20.80
2015,07,19,09,07,20.80
2015,07,19,09,08,20.70
2015,07,19,09,09,20.70
2015,07,19,09,10,20.60
2015,07,19,09,11,20.60
2015,07,19,09,12,20.50
2015,07,19,09,13,20.50
2015,07,19,09,14,20.40
2015,07,19,09,15,20.40
2015,07,19,09,16,20.40
2015,07,19,09,17,20.40
2015,07,19,09,18,20.40
2015,07,19,09,19,20.40
2015,07,19,09,20,20.40
2015,07,19,09,21,20.50
2015,07,19,09,22,20.60
2015,07,19,09,23,20.80
2015,07,19,09,24,20.90
2015,07,19,09,25,21.10
2015,07,19,09,26,21.20
2015,07,19,09,27,21.40
2015,07,19,09,28,21.50
2015,07,19,09,29,21.50
2015,07,19,09,30,21.60
2015,07,19,09,31,21.70
2015,07,19,09,32,21.70
2015,07,19,09,33,21.70
2015,07,19,09,34,21.80
2015,07,19,09,35,21.80
2015,07,19,09,36,21.90
2015,07,19,09,37,22.00
2015,07,19,09,38,22.20
2015,07,19,09,39,22.40
2015,07,19,09,40,22.60
2015,07,19,09,41,22.70
2015,07,19,09,42,22.70
2015,07,19,09,43,22.70
2015,07,19,09,44,22.80
2015,07,19,09,45,23.00
2015,07,19,09,46,23.20
2015,07,19,09,47,23.40
2015,07,19,09,48,23.60
2015,07,19,09,49,23.70
2015,07,19,09,50,23.70
2015,07,19,09,51,23.70
2015,07,19,09,52,23.70
2015,07,19,09,53,23.70
2015,07,19,09,54,23.80
2015,07,19,09,55,23.80
2015,07,19,09,56,23.90
2015,07,19,09,57,24.10
2015,07,19,09,58,24.30
2015,07,19,09,59,24.40
2015,07,19,10,00,24.50
2015,07,19,10,01,24.60
2015,07,19,10,02,24.70
2015,07,19,10,03,24.80
2015,07,19,10,04,24.90
2015,07,19,10,05,25.00
2015,07,19,10,06,25.10
2015,07,19,10,07,25.20
2015,07,19,10,08,25.20
2015,07,19,10,09,25.20
2015,07,19,10,10,25.30
2015,07,19,10,11,25.30
2015,07,19,10,12,25.40
2015,07,19,10,13,25.40
2015,07,19,10,14,25.50
2015,07,19,10,15,25.60
2015,07,19,10,16,25.70
2015,07,19,10,17,25.70
2015,07,19,10,18,25.80
2015,07,19,10,19,25.80
2015,07,19,10,20,25.90
2015,07,19,10,21,26.00
2015,07,19,10,22,26.00
2015,07,19,10,23,26.10
2015,07,19,10,24,26.10
2015,07,19,10,25,26.20
2015,07,19,10,26,26.20
2015,07,19,10,27,26.30
2015,07,19,10,28,26.30
2015,07,19,10,29,26.40
2015,07,19,10,30,26.40
2015,07,19,10,31,26.40
2015,07,19,10,32,26.40
2015,07,19,10,33,26.40
2015,07,19,10,34,26.50
2015,07,19,10,35,26.50
2015,07,19,10,36,26.60
2015,07,19,10,37,26.60
2015,07,19,10,38,26.60
2015,07,19,10,39,26.70
2015,07,19,10,40,26.70
2015,07,19,10,41,26.80
2015,07,19,10,42,26.80
2015,07,19,10,43,26.80
2015,07,19,10,44,26.90
2015,07,19,10,45,26.90
2015,07,19,10,46,27.00
2015,07,19,10,47,27.10
2015,07,19,10,48,27.20
2015,07,19,10,49,27.30
2015,07,19,10,50,27.40
2015,07,19,10,51,27.40
2015,07,19,10,52,27.50
2015,07,19,10,53,27.60
2015,07,19,10,54,27.60
2015,07,19,10,55,27.60
2015,07,19,10,56,27.70
2015,07,19,10,57,27.80
2015,07,19,10,58,27.90
2015,07,19,10,59,27.90
2015,07,19,11,00,28.00
2015,07,19,11,01,27.90
2015,07,19,11,02,27.80
2015,07,19,11,03,27.80
2015,07,19,11,04,27.90
2015,07,19,11,05,27.90
2015,07,19,11,06,27.90
2015,07,19,11,07,27.90
2015,07,19,11,08,27.90
2015,07,19,11,09,27.90
2015,07,19,11,10,28.00
2015,07,19,11,11,28.00
2015,07,19,11,12,28.10
2015,07,19,11,13,28.10
2015,07,19,11,14,28.10
2015,07,19,11,15,28.20
2015,07,19,11,16,28.20
2015,07,19,11,17,28.20
2015,07,19,11,18,28.30
2015,07,19,11,19,28.40
2015,07,19,11,20,28.40
2015,07,19,11,21,28.50
2015,07,19,11,22,28.50
2015,07,19,11,23,28.60
2015,07,19,11,24,28.60
2015,07,19,11,25,28.60
2015,07,19,11,26,28.60
2015,07,19,11,27,28.60
2015,07,19,11,28,28.60
2015,07,19,11,29,28.60
2015,07,19,11,30,28.70
2015,07,19,11,31,28.70
2015,07,19,11,32,28.70
2015,07,19,11,33,28.70
2015,07,19,11,34,28.70
2015,07,19,11,35,28.70
2015,07,19,11,36,28.80
2015,07,19,11,37,28.80
2015,07,19,11,38,28.90
2015,07,19,11,39,28.90
2015,07,19,11,40,28.80
2015,07,19,11,41,28.80
2015,07,19,11,42,28.80
2015,07,19,11,43,28.80
2015,07,19,11,44,28.90
2015,07,19,11,45,28.90
2015,07,19,11,46,29.10
2015,07,19,11,47,29.20
2015,07,19,11,48,29.30
2015,07,19,11,49,29.40
2015,07,19,11,50,29.50
2015,07,19,11,51,29.50
2015,07,19,11,52,29.50
2015,07,19,11,53,29.40
2015,07,19,11,54,29.40
2015,07,19,11,55,29.40
2015,07,19,11,56,29.40
2015,07,19,11,57,29.50
2015,07,19,11,58,29.50
2015,07,19,11,59,29.60
2015,07,19,12,00,29.60
2015,07,19,12,01,29.70
2015,07,19,12,02,29.80
2015,07,19,12,03,29.80
2015,07,19,12,04,29.90
2015,07,19,12,05,29.90
2015,07,19,12,06,29.90
2015,07,19,12,07,29.90
2015,07,19,12,08,29.90
2015,07,19,12,09,30.00
2015,07,19,12,10,30.00
2015,07,19,12,11,30.00
2015,07,19,12,12,30.00
2015,07,19,12,13,30.00
2015,07,19,12,14,30.10
2015,07,19,12,15,30.20
2015,07,19,12,16,30.20
2015,07,19,12,17,30.30
2015,07,19,12,18,30.30
2015,07,19,12,19,30.40
2015,07,19,12,20,30.40
2015,07,19,12,21,30.50
2015,07,19,12,22,30.50
2015,07,19,12,23,30.60
2015,07,19,12,24,30.60
2015,07,19,12,25,30.60
2015,07,19,12,26,30.60
2015,07,19,12,27,30.70
2015,07,19,12,28,30.80
2015,07,19,12,29,30.80
2015,07,19,12,30,30.90
2015,07,19,12,31,30.90
2015,07,19,12,32,31.00
2015,07,19,12,33,31.10
2015,07,19,12,34,31.10
2015,07,19,12,35,31.20
2015,07,19,12,36,31.30
2015,07,19,12,37,31.30
2015,07,19,12,38,31.30
2015,07,19,12,39,31.30
2015,07,19,12,40,31.30
2015,07,19,12,41,31.40
2015,07,19,12,42,31.40
2015,07,19,12,43,31.50
2015,07,19,12,44,31.50
2015,07,19,12,45,31.50
2015,07,19,12,46,31.50
2015,07,19,12,47,31.50
2015,07,19,12,48,31.40
2015,07,19,12,49,31.40
2015,07,19,12,50,31.50
2015,07,19,12,51,31.50
2015,07,19,12,52,31.70
2015,07,19,12,53,31.80
2015,07,19,12,54,31.90
2015,07,19,12,55,31.80
2015,07,19,12,56,31.90
2015,07,19,12,57,31.90
2015,07,19,12,58,32.00
2015,07,19,12,59,32.00
2015,07,19,13,00,32.10
2015,07,19,13,01,32.10
2015,07,19,13,02,32.20
2015,07,19,13,03,32.30
2015,07,19,13,04,32.30
2015,07,19,13,05,32.30
2015,07,19,13,06,32.30
2015,07,19,13,07,32.30
2015,07,19,13,08,32.30
2015,07,19,13,09,32.30
2015,07,19,13,10,32.40
2015,07,19,13,11,32.50
2015,07,19,13,12,32.50
2015,07,19,13,13,32.60
2015,07,19,13,14,32.60
2015,07,19,13,15,32.50
2015,07,19,13,16,32.40
2015,07,19,13,17,32.40
2015,07,19,13,18,32.40
2015,07,19,13,19,32.40
2015,07,19,13,20,32.40
2015,07,19,13,21,32.40
2015,07,19,13,22,32.40
2015,07,19,13,23,32.50
2015,07,19,13,24,32.50
2015,07,19,13,25,32.60
2015,07,19,13,26,32.60
2015,07,19,13,27,32.70
2015,07,19,13,28,32.70
2015,07,19,13,29,32.80
2015,07,19,13,30,32.90
2015,07,19,13,31,32.90
2015,07,19,13,32,33.00
2015,07,19,13,33,33.10
2015,07,19,13,34,33.10
2015,07,19,13,35,33.10
2015,07,19,13,36,33.10
2015,07,19,13,37,33.10
2015,07,19,13,38,33.20
2015,07,19,13,39,33.20
2015,07,19,13,40,33.20
2015,07,19,13,41,33.20
2015,07,19,13,42,33.20
2015,07,19,13,43,33.30
2015,07,19,13,44,33.30
2015,07,19,13,45,33.30
2015,07,19,13,46,33.20
2015,07,19,13,47,33.30
2015,07,19,13,48,33.30
2015,07,19,13,49,33.20
2015,07,19,13,50,32.90
2015,07,19,13,51,32.50
2015,07,19,13,52,32.00
2015,07,19,13,53,31.60
2015,07,19,13,54,31.20
2015,07,19,13,55,30.80
2015,07,19,13,56,30.40
2015,07,19,13,57,30.00
2015,07,19,13,58,29.70
2015,07,19,13,59,29.50
2015,07,19,14,00,29.40
2015,07,19,14,01,29.50
2015,07,19,14,02,29.60
2015,07,19,14,03,29.70
2015,07,19,14,04,29.80
2015,07,19,14,05,29.90
2015,07,19,14,06,29.90
2015,07,19,14,07,29.90
2015,07,19,14,08,29.80
2015,07,19,14,09,29.70
2015,07,19,14,10,29.50
2015,07,19,14,11,29.20
2015,07,19,14,12,28.90
2015,07,19,14,13,28.70
2015,07,19,14,14,28.60
2015,07,19,14,15,28.40
2015,07,19,14,16,28.30
2015,07,19,14,17,28.20
2015,07,19,14,18,28.10
2015,07,19,14,19,28.00
2015,07,19,14,20,28.00
2015,07,19,14,21,28.00
2015,07,19,14,22,28.00
2015,07,19,14,23,28.00
2015,07,19,14,24,28.00
2015,07,19,14,25,28.00
2015,07,19,14,26,28.10
2015,07,19,14,27,28.10
2015,07,19,14,28,28.20
2015,07,19,14,29,28.30
2015,07,19,14,30,28.30
2015,07,19,14,31,28.30
2015,07,19,14,32,28.20
2015,07,19,14,33,28.10
2015,07,19,14,34,27.90
2015,07,19,14,35,27.80
2015,07,19,14,36,27.60
2015,07,19,14,37,27.60
2015,07,19,14,38,27.50
2015,07,19,14,39,27.40
2015,07,19,14,40,27.40
2015,07,19,14,41,27.40
2015,07,19,14,42,27.40
2015,07,19,14,43,27.40
2015,07,19,14,44,27.40
2015,07,19,14,45,27.50
2015,07,19,14,46,27.50
2015,07,19,14,47,27.50
2015,07,19,14,48,27.40
2015,07,19,14,49,27.30
2015,07,19,14,50,27.30
2015,07,19,14,51,27.20
2015,07,19,14,52,27.20
2015,07,19,14,53,27.20
2015,07,19,14,54,27.20
2015,07,19,14,55,27.30
2015,07,19,14,56,27.20
2015,07,19,14,57,27.20
2015,07,19,14,58,27.20
2015,07,19,14,59,27.20
2015,07,19,15,00,27.20
2015,07,19,15,01,27.20
2015,07,19,15,02,27.20
2015,07,19,15,03,27.20
2015,07,19,15,04,27.20
2015,07,19,15,05,27.20
2015,07,19,15,06,27.20
2015,07,19,15,07,27.20
2015,07,19,15,08,27.20
2015,07,19,15,09,27.20
2015,07,19,15,10,27.30
2015,07,19,15,11,27.30
2015,07,19,15,12,27.30
2015,07,19,15,13,27.30
2015,07,19,15,14,27.30
2015,07,19,15,15,27.30
2015,07,19,15,16,27.30
2015,07,19,15,17,27.40
2015,07,19,15,18,27.40
2015,07,19,15,19,27.30
2015,07,19,15,20,27.30
2015,07,19,15,21,27.20
2015,07,19,15,22,27.20
2015,07,19,15,23,27.20
2015,07,19,15,24,27.20
2015,07,19,15,25,27.20
2015,07,19,15,26,27.20
2015,07,19,15,27,27.30
2015,07,19,15,28,27.30
2015,07,19,15,29,27.30
2015,07,19,15,30,27.30
2015,07,19,15,31,27.30
2015,07,19,15,32,27.30
2015,07,19,15,33,27.40
2015,07,19,15,34,27.40
2015,07,19,15,35,27.50
2015,07,19,15,36,27.60
2015,07,19,15,37,27.70
2015,07,19,15,38,27.70
2015,07,19,15,39,27.70
2015,07,19,15,40,27.70
2015,07,19,15,41,27.80
2015,07,19,15,42,27.80
2015,07,19,15,43,27.90
2015,07,19,15,44,28.00
2015,07,19,15,45,28.10
2015,07,19,15,46,28.20
2015,07,19,15,47,28.30
2015,07,19,15,48,28.40
2015,07,19,15,49,28.40
2015,07,19,15,50,28.40
2015,07,19,15,51,28.50
2015,07,19,15,52,28.60
2015,07,19,15,53,28.80
2015,07,19,15,54,29.00
2015,07,19,15,55,29.10
2015,07,19,15,56,29.30
2015,07,19,15,57,29.40
2015,07,19,15,58,29.50
2015,07,19,15,59,29.60
2015,07,19,16,00,29.70
2015,07,19,16,01,29.80
2015,07,19,16,02,29.90
2015,07,19,16,03,30.00
2015,07,19,16,04,30.00
2015,07,19,16,05,30.10
2015,07,19,16,06,30.10
2015,07,19,16,07,30.10
2015,07,19,16,08,30.10
2015,07,19,16,09,30.10
2015,07,19,16,10,30.20
2015,07,19,16,11,30.30
2015,07,19,16,12,30.30
2015,07,19,16,13,30.30
2015,07,19,16,14,30.30
2015,07,19,16,15,30.20
2015,07,19,16,16,30.10
2015,07,19,16,17,30.20
2015,07,19,16,18,30.20
2015,07,19,16,19,30.20
2015,07,19,16,20,30.20
2015,07,19,16,21,30.20
2015,07,19,16,22,30.20
2015,07,19,16,23,30.20
2015,07,19,16,24,30.20
2015,07,19,16,25,30.30
2015,07,19,16,26,30.30
2015,07,19,16,27,30.20
2015,07,19,16,28,30.10
2015,07,19,16,29,30.10
2015,07,19,16,30,30.10
2015,07,19,16,31,30.10
2015,07,19,16,32,30.10
2015,07,19,16,33,30.10
2015,07,19,16,34,30.10
2015,07,19,16,35,30.10
2015,07,19,16,36,30.00
2015,07,19,16,37,29.90
2015,07,19,16,38,29.80
2015,07,19,16,39,29.80
2015,07,19,16,40,29.70
2015,07,19,16,41,29.60
2015,07,19,16,42,29.50
2015,07,19,16,43,29.40
2015,07,19,16,44,29.40
2015,07,19,16,45,29.30
2015,07,19,16,46,29.10
2015,07,19,16,47,29.00
2015,07,19,16,48,28.80
2015,07,19,16,49,28.60
2015,07,19,16,50,28.60
2015,07,19,16,51,28.60
2015,07,19,16,52,28.70
2015,07,19,16,53,28.90
2015,07,19,16,54,28.90
2015,07,19,16,55,28.80
2015,07,19,16,56,28.50
2015,07,19,16,57,28.30
2015,07,19,16,58,28.10
2015,07,19,16,59,27.90
2015,07,19,17,00,27.80
2015,07,19,17,01,27.60
2015,07,19,17,02,27.40
2015,07,19,17,03,27.20
2015,07,19,17,04,27.00
2015,07,19,17,05,26.90
2015,07,19,17,06,26.80
2015,07,19,17,07,26.70
2015,07,19,17,08,26.60
2015,07,19,17,09,26.60
2015,07,19,17,10,26.60
2015,07,19,17,11,26.60
2015,07,19,17,12,26.60
2015,07,19,17,13,26.60
2015,07,19,17,14,26.70
2015,07,19,17,15,26.70
2015,07,19,17,16,26.70
2015,07,19,17,17,26.70
2015,07,19,17,18,26.70
2015,07,19,17,19,26.70